Flag for Germany Weather past 2 weeks in Schwabach, Bavaria, Germany

Now
59 °F

Scattered clouds.


Feels Like: 59 °F
Forecast: 46 / 71 °F
Wind: 5 mph from North

Location: Nuernberg

Current Time: Aug 27, 2014 at 12:03:18 PM

Latest Report: Aug 27, 2014 at 11:20 AM


Visibility: N/A

Pressure: 30.01 "Hg

Humidity: 82%

Dew point: 54 °F

Location of SchwabachLocation

Historic Weather in Schwabach — Graph

°F

Schwabach temperature yesterday

Maximum temperature yesterday: 64 °F (at 12:50 PM)
Minimum temperature yesterday: 54 °F (at 1:20 AM)
Average temperature yesterday: 58 °F

Past Weeks' High & Low Weather Summary

 TemperatureHumidityPressure
High72 °F (Aug 12, 1:50 PM)100% (Aug 15, 2:50 AM)30.12 "Hg (Aug 15, 2:50 AM)
Low41 °F (Aug 25, 6:20 AM)35% (Aug 22, 2:50 PM)29.68 "Hg (Aug 13, 2:50 PM)
Average58 °F77%29.94 "Hg
* Reported Aug 12 10:20 AM — Aug 27 10:20 AM, Schwabach, Weather by CustomWeather, © 2014

Note: Actual official high and low records may vary slightly from our data, if they occured in-between our weather recording intervals... More about our weather records

Advertising

Schwabach weather history for previous 24 hours

 ConditionsComfort  
Time TempWeatherWind HumidityBarometerVisibility
10:20 AM
Aug 27
57 °FPartly sunny.6 mph88%29.95 "HgN/A
9:50 AM57 °FScattered clouds.5 mph94%29.95 "HgN/A
9:20 AM55 °FBroken clouds.2 mph94%29.95 "HgN/A
8:50 AM55 °FBroken clouds.3 mph94%29.92 "HgN/A
8:20 AM54 °FPartly sunny.3 mph100%29.92 "Hg5 mi
7:50 AM54 °FLight rain. Broken clouds.3 mph100%29.89 "Hg5 mi
7:20 AM54 °FLight rain. Mostly cloudy.3 mph100%29.89 "Hg6 mi
6:50 AM54 °FLight rain. Mostly cloudy.3 mph100%29.86 "Hg6 mi
6:20 AM54 °FLight rain. Partly cloudy.3 mph100%29.86 "HgN/A
5:50 AM54 °FLight rain. Mostly cloudy.2 mph100%29.83 "HgN/A
5:20 AM54 °FLight rain. Mostly cloudy.3 mph100%29.83 "HgN/A
4:50 AM54 °FLight rain. Mostly cloudy.3 mph100%29.80 "HgN/A
4:20 AM54 °FLight rain. Mostly cloudy.2 mph100%29.80 "HgN/A
3:50 AM54 °FLight rain. Mostly cloudy.3 mph100%29.77 "HgN/A
3:20 AM54 °FOvercast.5 mph100%29.77 "Hg4 mi
2:20 AM59 °FLight rain. Partly cloudy.7 mph94%29.74 "Hg5 mi
1:50 AM59 °FLight rain. Mostly cloudy.6 mph100%29.74 "Hg4 mi
1:20 AM59 °FLight rain. Mostly cloudy.6 mph100%29.74 "HgN/A
12:50 AM59 °FLight rain. Mostly cloudy.1 mph100%29.74 "HgN/A
12:20 AM59 °FLight rain. Mostly cloudy.3 mph100%29.74 "Hg6 mi
11:50 PM
Aug 26
57 °FLight rain. Mostly cloudy.2 mph100%29.74 "HgN/A
11:20 PM57 °FLight rain. Mostly cloudy.2 mph100%29.74 "HgN/A
10:50 PM57 °FLight rain. Mostly cloudy.2 mph100%29.74 "HgN/A
10:20 PM59 °FLight rain. Mostly cloudy.1 mph100%29.74 "HgN/A
9:50 PM59 °FLight rain. Mostly cloudy.2 mph100%29.74 "HgN/A
9:20 PM59 °FLight rain. Mostly cloudy.1 mph100%29.74 "HgN/A
8:50 PM59 °FLight rain. More clouds than sun.2 mph100%29.74 "HgN/A
8:20 PM59 °FLight rain. Broken clouds.1 mph100%29.74 "HgN/A
7:50 PM59 °FLight rain. Broken clouds.2 mph94%29.71 "HgN/A
7:20 PM61 °FLight rain. Broken clouds.3 mph94%29.71 "HgN/A
6:50 PM61 °FLight rain. Broken clouds.3 mph94%29.74 "HgN/A
6:20 PM63 °FPartly sunny.3 mph83%29.74 "HgN/A
5:50 PM63 °FPartly sunny.3 mph88%29.74 "HgN/A
5:20 PM64 °FScattered clouds.2 mph83%29.71 "HgN/A
4:50 PM63 °FBroken clouds.5 mph83%29.74 "HgN/A
4:20 PM63 °FBroken clouds.6 mph83%29.74 "HgN/A
3:50 PM63 °FBroken clouds.5 mph88%29.74 "HgN/A
3:20 PM63 °FBroken clouds.7 mph88%29.74 "HgN/A
2:50 PM61 °FBroken clouds.9 mph94%29.74 "HgN/A
2:20 PM59 °FSprinkles. Broken clouds.14 mph94%29.74 "HgN/A
1:50 PM59 °FSprinkles. Broken clouds.13 mph94%29.74 "HgN/A
1:20 PM63 °FPartly sunny.20 mph83%29.71 "HgN/A
12:50 PM64 °FBroken clouds.15 mph88%29.71 "HgN/A
12:20 PM61 °FSprinkles. Broken clouds.9 mph94%29.71 "HgN/A
Weather by CustomWeather, © 2014

See weather overviewHow to use our weather pages